FENGYUN 3B

Last updated on Wed Sep 23 2026 00:03:10 GMT+0000 (Coordinated Universal Time)

1 37214U 10059A 26265.62289079 .00000227 00000+0 14068-3 0 9998 2 37214 98.9534 312.0049 0021018 270.8184 205.6095 14.14859370821200
UTC large
Height (km)
Speed (km/s)
/
Latitude / Longitude
Inclination (degrees)
Orbital Period (minutes)
Azimuth
Elevation
Range (km)
Doppler Factor

Next 0 passes for location: London (51.5072 / 0.1276)

No passes found over London.
FENGYUN 3B